User: anonymous   Login
Location: Aula-Vintri
(58.3875°N, 22.4322°E)
Time: 14:34:15
(UTC+00:00)
Language:

Cosmos 2227 Rocket - Orbit

View from above orbital plane
View from above orbital plane
View from above satellite
View from above satellite

Ground track
Ground track

The orbit data is extracted from the following two-line orbital elements,

1 22285U 92093B   19338.70023316 -.00000234 +00000-0 -96214-4 0  9995
2 22285 071.0207 123.1831 0005380 222.1997 137.8712 14.15040013389643
Epoch (UTC): 04 December 2019 16:48:20
Eccentricity: 0.0005380
inclination: 71.0207°
perigee height: 838 km
apogee height: 846 km
right ascension of ascending node: 123.1831°
argument of perigee: 222.1997°
revolutions per day: 14.15040013
mean anomaly at epoch: 137.8712°
orbit number at epoch: 38964

The dashed part of the orbit path shows where the satellite is in the earth's shadow,  

DLR